Torna al catalogo

CZ-3B DEB

LostGTO
NORAD 48542·DEBRIS·🇨🇳 China

Lanciato Sep 4, 2010 da Xichang Satellite Launch Center

Loading…

TLE

ObsoletoSource: Space-Track

Epoca: Jan 1, 2025, 23:03 UTC

1 48542U 10042AH  25001.96073047  .00002706  00000-0  14890-1 0  9992
2 48542  22.5672  16.3859 7371962 215.3059  60.2254  2.07196923 94530

Traccia CZ-3B DEB in tempo reale con AllMySat

Download on the App Store